sat.trackr.live / text

‹ back to catalog

STARLINK-6186

NORAD 56908 · 2023-083AJ

PAYLOAD ACTIVE UNKNOWN

§ Identity

Operator
Country
US
Launch date
2023-06-12
Launch site
AFETR
Launch vehicle
Mass (kg)
RCS (m²)

Purposes: comms

External: N2YO · Heavens-Above · Gunter

§ Orbital elements

Epoch: 2026-05-25T00:35:32.973216Z

Period
94.27 min
Inclination
43.0036°
Eccentricity
0.0001077
Mean motion
15.27575804 rev/d
Perigee alt
482.3 km
Apogee alt
483.8 km
Semi-major
6,861.2 km
B*
5.6279e-6
RAAN
359.4917°
Arg perigee
264.6527°
Mean anomaly
95.4201°
Rev number
16,347

§ Raw data

STARLINK-61861 56908U 23083AJ  26145.02468719 -.00000107  00000+0  56279-5 0  99912 56908  43.0036 359.4917 0001077 264.6527  95.4201 15.27575804163477

JSON: /api/v1/satellites/56908 · /tle

For live sub-satellite position, see the globe view (requires WebGL).

§ Visibility from observer

Set your observer location to see the next 7 days of passes ≥ 10°. The values pass through the URL so the page stays shareable.

No JS? Fill the form by hand. The geolocation button needs JavaScript.